OBJECT AY, 61781

Orbit data source: Space-Track

You're viewing an Uncataloged Satellite

Recently launched and/or uncataloged satellites may have evolving metadata. Metadata may include but not limited to: Owner, Maufacturer, Bus, Motor, and Mission.

OBJECT AY, 61781 is a satellite in SSO that was launched on Mon, 04 Nov 2024 UTC via a SOYUZ-2-1B launch vehicle from the Vostochny Cosmodrome (VOSTO). Unknown objects in Earth's orbit typically refer to objects detected orbiting the Earth but have not yet been identified or cataloged. These objects could be anything from previously untracked satellites, spent rocket stages, debris from satellite collisions, or even natural meteoroids temporarily captured by Earth's gravity.

Loading next visibility...
Identifier
61781, 2024-199AY
Orbit
SSO
Country
Flag of TBDTBD
Related business
Flag of RUAmur State University (RU)
Manufacturer
AMGU/HARB
Mission
Operational Amateur Communications
Bus & Motor
CUBESAT 12U, Unknown motor
Mass
~15 kg wet, ~15 kg dry
Launch date (UTC)
2024-11-04 (10 months ago)
Launch vehicle
SOYUZ-2-1B
Launch site
Vostochny Cosmodrome (VOSTO)
Object type
Unknown
Shape & HBR
Box, 0.1 m
Radar Cross Section
0.035 m², Medium (>0.1 m² and < 1m²)

Expand to show TLE details & history
Last TLE update: 15 hours ago

TLE from 15 hours ago
0 OBJECT AY
1 61781U 24199AY  25260.25476187  .00006792  00000-0  23813-3 0  9997
2 61781  97.3391 126.7418 0014680 197.4208 162.6531 15.29675812 92119
Epoch: 2025-09-17T06:06Z
TLE epoch observation values (Epoch: 2025-09-17T06:06:51.425Z)
Latitude
-0.00002°
Longitude
38.59419°
Altitude
489.495 km
Speed
7.615 km/s
True Right ascension
08h 26m 58s
True Declination
0° 00' 00"
Sunlit
Object was in daylight at epoch
Visualization orbit readout
Latitude
Unknown
Longitude
Unknown
Altitude
Unknown
Speed
Unknown
Apparent Right ascension
Unknown
Apparent Declination
Unknown
Sunlit
N/A
Visualization observer readout
Local Sidereal Time
14:13:08
Azimuth
Unknown
Elevation
Unknown
Doppler factor
Unknown
Orbital elements
Apogee altitude
483.789 km
Perigee altitude
463.672 km
Semi-major axis
6,851.868 km
Eccentricity
0.00147
Inclination
97.3391°
RAAN
126.7418°
Arg. of periapsis
197.4208°
True anomaly
162.70317°
Mean anomaly
162.6531°
Eccentric anomaly
162.67814°
Mean motion
3.82675 °/min
Orbital period
94.07 mins
BSTAR
0.00023813
Loading maneuver chart data...
Computing Atmospheric mass density...
Loading historical data...
Loading historical data...
Loading historical data...
Loading historical data...
Loading historical data...
Loading historical data...
Loading historical data...

Documentation

Showing up to 5 results
|